Time,TemperatureF,DewpointF,PressureIn,WindDirection,WindDirectionDegrees,WindSpeedMPH,WindSpeedGustMPH,Humidity,HourlyPrecipIn,Conditions,Clouds,dailyrainin,SolarRadiationWatts/m^2,SoftwareType,DateUTC
2013-01-06 00:01:00,33.1,31.6,30.09,South,190,4.0,5.0,94,0.00,,,0.00,0,Wunderground v.1.15,2013-01-06 05:01:00,
2013-01-06 00:06:00,33.2,31.7,30.08,SW,215,4.0,4.0,94,0.00,,,0.00,0,Wunderground v.1.15,2013-01-06 05:06:00,
2013-01-06 00:11:00,33.2,31.7,30.08,SSW,202,5.0,5.0,94,0.00,,,0.00,0,Wunderground v.1.15,2013-01-06 05:11:00,
2013-01-06 00:21:00,33.4,31.6,30.08,South,187,6.0,10.0,93,0.00,,,0.00,0,Wunderground v.1.15,2013-01-06 05:21:00,
2013-01-06 00:25:00,33.4,31.6,30.07,SW,223,7.0,9.0,93,0.00,,,0.00,0,Wunderground v.1.15,2013-01-06 05:25:00,
2013-01-06 00:31:00,33.5,31.7,30.07,SSW,205,6.0,13.0,93,0.00,,,0.00,0,Wunderground v.1.15,2013-01-06 05:31:00,
2013-01-06 00:36:00,33.6,31.8,30.06,SSW,202,5.0,13.0,93,0.00,,,0.00,0,Wunderground v.1.15,2013-01-06 05:36:00,
2013-01-06 00:41:00,33.7,31.9,30.07,SW,215,6.0,13.0,93,0.00,,,0.00,0,Wunderground v.1.15,2013-01-06 05:41:00,
2013-01-06 00:46:00,33.7,31.9,30.06,South,184,6.0,13.0,93,0.00,,,0.00,0,Wunderground v.1.15,2013-01-06 05:46:00,
2013-01-06 00:51:00,33.8,31.7,30.07,SW,221,6.0,13.0,92,0.00,,,0.00,0,Wunderground v.1.15,2013-01-06 05:51:00,
2013-01-06 00:56:00,33.8,31.7,30.06,SSW,206,6.0,11.0,92,0.00,,,0.00,0,Wunderground v.1.15,2013-01-06 05:56:00,
2013-01-06 01:06:00,33.8,31.7,30.06,SSW,196,6.0,6.0,92,0.00,,,0.00,0,Wunderground v.1.15,2013-01-06 06:06:00,
2013-01-06 01:11:00,33.8,31.7,30.05,SSW,202,5.0,6.0,92,0.00,,,0.00,0,Wunderground v.1.15,2013-01-06 06:11:00,
2013-01-06 01:16:00,33.8,31.5,30.05,SW,215,5.0,5.0,91,0.00,,,0.00,0,Wunderground v.1.15,2013-01-06 06:16:00,
2013-01-06 01:20:00,33.8,31.5,30.05,SW,222,6.0,6.0,91,0.00,,,0.00,0,Wunderground v.1.15,2013-01-06 06:20:00,
2013-01-06 01:25:00,33.8,31.5,30.05,SSW,203,6.0,7.0,91,0.00,,,0.00,0,Wunderground v.1.15,2013-01-06 06:25:00,
2013-01-06 01:31:00,33.9,31.6,30.05,SSW,194,6.0,15.0,91,0.00,,,0.00,0,Wunderground v.1.15,2013-01-06 06:31:00,
2013-01-06 01:36:00,33.9,31.3,30.04,South,179,7.0,15.0,90,0.00,,,0.00,0,Wunderground v.1.15,2013-01-06 06:36:00,
2013-01-06 01:41:00,33.9,31.3,30.04,South,189,7.0,15.0,90,0.00,,,0.00,0,Wunderground v.1.15,2013-01-06 06:41:00,
2013-01-06 01:46:00,33.9,31.3,30.04,SSW,202,6.0,15.0,90,0.00,,,0.00,0,Wunderground v.1.15,2013-01-06 06:46:00,
2013-01-06 01:51:00,33.9,31.3,30.04,South,183,6.0,15.0,90,0.00,,,0.00,0,Wunderground v.1.15,2013-01-06 06:51:00,
2013-01-06 01:56:00,33.9,31.3,30.04,WSW,242,7.0,7.0,90,0.00,,,0.00,0,Wunderground v.1.15,2013-01-06 06:56:00,
2013-01-06 02:06:00,33.9,31.3,30.03,SSW,192,7.0,7.0,90,0.00,,,0.00,0,Wunderground v.1.15,2013-01-06 07:06:00,
2013-01-06 02:11:00,33.9,31.3,30.04,South,186,7.0,7.0,90,0.00,,,0.00,0,Wunderground v.1.15,2013-01-06 07:11:00,
2013-01-06 02:16:00,33.9,31.3,30.04,SSW,203,7.0,7.0,90,0.00,,,0.00,0,Wunderground v.1.15,2013-01-06 07:16:00,
2013-01-06 02:21:00,33.8,31.2,30.04,SSW,200,7.0,7.0,90,0.00,,,0.00,0,Wunderground v.1.15,2013-01-06 07:21:00,
2013-01-06 02:26:00,33.8,32.8,30.03,SW,218,6.0,6.0,96,0.00,,,0.00,0,Wunderground v.1.15,2013-01-06 07:26:00,
2013-01-06 02:31:00,33.8,32.8,30.03,SW,236,6.0,13.0,96,0.00,,,0.00,0,Wunderground v.1.15,2013-01-06 07:31:00,
2013-01-06 02:36:00,33.8,31.2,30.03,SSW,198,5.0,13.0,90,0.00,,,0.00,0,Wunderground v.1.15,2013-01-06 07:36:00,
2013-01-06 02:46:00,33.8,31.2,30.03,SSW,210,5.0,13.0,90,0.00,,,0.00,0,Wunderground v.1.15,2013-01-06 07:46:00,
2013-01-06 02:51:00,33.8,31.2,30.03,SW,219,5.0,13.0,90,0.00,,,0.00,0,Wunderground v.1.15,2013-01-06 07:51:00,
2013-01-06 02:56:00,33.8,32.8,30.03,SSW,213,5.0,5.0,96,0.00,,,0.00,0,Wunderground v.1.15,2013-01-06 07:56:00,
2013-01-06 03:06:00,33.8,31.2,30.02,SSW,198,5.0,6.0,90,0.00,,,0.00,0,Wunderground v.1.15,2013-01-06 08:06:00,
2013-01-06 03:11:00,33.9,31.3,30.02,SW,217,6.0,12.0,90,0.00,,,0.00,0,Wunderground v.1.15,2013-01-06 08:11:00,
2013-01-06 03:16:00,33.9,31.3,30.02,South,190,6.0,6.0,90,0.00,,,0.00,0,Wunderground v.1.15,2013-01-06 08:16:00,
2013-01-06 03:26:00,33.9,31.0,30.02,SSW,211,5.0,5.0,89,0.00,,,0.00,0,Wunderground v.1.15,2013-01-06 08:26:00,
2013-01-06 03:31:00,33.9,31.3,30.02,SW,229,4.0,15.0,90,0.00,,,0.00,0,Wunderground v.1.15,2013-01-06 08:31:00,
2013-01-06 03:36:00,33.9,31.0,30.02,SSW,211,5.0,15.0,89,0.00,,,0.00,0,Wunderground v.1.15,2013-01-06 08:36:00,
2013-01-06 03:41:00,34.0,31.1,30.01,SSW,192,6.0,15.0,89,0.00,,,0.00,0,Wunderground v.1.15,2013-01-06 08:41:00,
2013-01-06 03:46:00,33.9,31.0,30.01,SSW,194,5.0,15.0,89,0.00,,,0.00,0,Wunderground v.1.15,2013-01-06 08:46:00,
2013-01-06 03:56:00,34.0,31.1,30.01,SSW,211,5.0,5.0,89,0.00,,,0.00,0,Wunderground v.1.15,2013-01-06 08:56:00,
2013-01-06 04:06:00,34.0,31.1,30.01,SW,225,5.0,11.0,89,0.00,,,0.00,0,Wunderground v.1.15,2013-01-06 09:06:00,
2013-01-06 04:16:00,34.1,31.2,30.01,SW,225,5.0,6.0,89,0.00,,,0.00,0,Wunderground v.1.15,2013-01-06 09:16:00,
2013-01-06 04:26:00,34.1,31.2,30.00,SSW,204,5.0,5.0,89,0.00,,,0.00,0,Wunderground v.1.15,2013-01-06 09:26:00,
2013-01-06 04:31:00,34.2,31.3,30.00,SW,228,5.0,15.0,89,0.00,,,0.00,0,Wunderground v.1.15,2013-01-06 09:31:00,
2013-01-06 04:36:00,34.2,31.3,30.00,SW,234,4.0,15.0,89,0.00,,,0.00,0,Wunderground v.1.15,2013-01-06 09:36:00,
2013-01-06 04:45:00,34.2,31.3,29.99,WSW,242,3.0,15.0,89,0.00,,,0.00,0,Wunderground v.1.15,2013-01-06 09:45:00,
2013-01-06 04:51:00,34.2,31.3,29.99,WSW,257,3.0,15.0,89,0.00,,,0.00,0,Wunderground v.1.15,2013-01-06 09:51:00,
2013-01-06 04:56:00,34.2,31.3,29.98,SSW,200,3.0,3.0,89,0.00,,,0.00,0,Wunderground v.1.15,2013-01-06 09:56:00,
2013-01-06 05:06:00,34.1,31.5,29.98,SSW,212,4.0,6.0,90,0.00,,,0.00,0,Wunderground v.1.15,2013-01-06 10:06:00,
2013-01-06 05:16:00,34.1,31.5,29.98,SSW,202,5.0,5.0,90,0.00,,,0.00,0,Wunderground v.1.15,2013-01-06 10:16:00,
2013-01-06 05:21:00,34.1,31.5,29.98,SSW,206,4.0,5.0,90,0.00,,,0.00,0,Wunderground v.1.15,2013-01-06 10:21:00,
2013-01-06 05:26:00,34.0,31.4,29.98,South,190,4.0,4.0,90,0.00,,,0.00,0,Wunderground v.1.15,2013-01-06 10:26:00,
2013-01-06 05:36:00,34.1,31.5,29.98,SSW,201,5.0,12.0,90,0.00,,,0.00,0,Wunderground v.1.15,2013-01-06 10:36:00,
2013-01-06 05:45:00,34.1,31.7,29.98,SW,215,5.0,5.0,91,0.00,,,0.00,0,Wunderground v.1.15,2013-01-06 10:45:00,
2013-01-06 05:51:00,34.1,31.7,29.98,SW,223,4.0,6.0,91,0.00,,,0.00,0,Wunderground v.1.15,2013-01-06 10:51:00,
2013-01-06 05:56:00,34.1,31.7,29.98,SSW,198,3.0,4.0,91,0.00,,,0.00,0,Wunderground v.1.15,2013-01-06 10:56:00,
2013-01-06 06:06:00,34.2,31.8,29.98,WSW,242,4.0,5.0,91,0.00,,,0.00,0,Wunderground v.1.15,2013-01-06 11:06:00,
2013-01-06 06:11:00,34.2,32.1,29.98,SW,219,4.0,5.0,92,0.00,,,0.00,0,Wunderground v.1.15,2013-01-06 11:11:00,
2013-01-06 06:16:00,34.2,32.1,29.98,SSW,207,5.0,5.0,92,0.00,,,0.00,0,Wunderground v.1.15,2013-01-06 11:16:00,
2013-01-06 06:26:00,34.2,32.1,29.98,SSW,201,4.0,4.0,92,0.00,,,0.00,0,Wunderground v.1.15,2013-01-06 11:26:00,
2013-01-06 06:31:00,34.2,32.1,29.98,SSW,199,5.0,5.0,92,0.00,,,0.00,0,Wunderground v.1.15,2013-01-06 11:31:00,
2013-01-06 06:36:00,34.3,32.2,29.98,SSW,192,5.0,13.0,92,0.00,,,0.00,0,Wunderground v.1.15,2013-01-06 11:36:00,
2013-01-06 06:41:00,34.3,32.2,29.98,SSW,204,5.0,13.0,92,0.00,,,0.00,0,Wunderground v.1.15,2013-01-06 11:41:00,
2013-01-06 06:46:00,34.3,32.2,29.98,SSW,206,5.0,5.0,92,0.00,,,0.00,0,Wunderground v.1.15,2013-01-06 11:46:00,
2013-01-06 06:56:00,34.3,31.9,29.98,SSW,212,3.0,3.0,91,0.00,,,0.00,0,Wunderground v.1.15,2013-01-06 11:56:00,
2013-01-06 07:05:00,34.4,32.0,29.97,SW,225,4.0,4.0,91,0.00,,,0.00,0,Wunderground v.1.15,2013-01-06 12:05:00,
2013-01-06 07:15:00,34.5,32.1,29.97,SW,214,4.0,9.0,91,0.00,,,0.00,0,Wunderground v.1.15,2013-01-06 12:15:00,
2013-01-06 07:21:00,34.5,32.1,29.97,SSW,205,5.0,9.0,91,0.00,,,0.00,0,Wunderground v.1.15,2013-01-06 12:21:00,
2013-01-06 07:26:00,34.5,31.9,29.97,SW,231,5.0,5.0,90,0.00,,,0.00,0,Wunderground v.1.15,2013-01-06 12:26:00,
2013-01-06 07:36:00,34.6,32.0,29.97,SW,229,4.0,4.0,90,0.00,,,0.00,0,Wunderground v.1.15,2013-01-06 12:36:00,
2013-01-06 07:41:00,34.6,32.0,29.97,South,190,4.0,5.0,90,0.00,,,0.00,0,Wunderground v.1.15,2013-01-06 12:41:00,
2013-01-06 07:46:00,34.6,32.0,29.97,SSW,200,4.0,11.0,90,0.00,,,0.00,0,Wunderground v.1.15,2013-01-06 12:46:00,
2013-01-06 07:56:00,34.6,32.0,29.96,SSW,200,4.0,4.0,90,0.00,,,0.00,0,Wunderground v.1.15,2013-01-06 12:56:00,
2013-01-06 08:05:00,34.6,32.0,29.97,SSW,204,4.0,5.0,90,0.00,,,0.00,0,Wunderground v.1.15,2013-01-06 13:05:00,
2013-01-06 08:10:00,34.5,31.9,29.97,SSW,203,3.0,7.0,90,0.00,,,0.00,0,Wunderground v.1.15,2013-01-06 13:10:00,
2013-01-06 08:15:00,34.6,32.0,29.97,South,188,4.0,4.0,90,0.00,,,0.00,0,Wunderground v.1.15,2013-01-06 13:15:00,
2013-01-06 08:21:00,34.5,31.9,29.97,SW,236,3.0,4.0,90,0.00,,,0.00,7,Wunderground v.1.15,2013-01-06 13:21:00,
2013-01-06 08:31:00,34.5,31.9,29.97,SW,223,3.0,11.0,90,0.00,,,0.00,5,Wunderground v.1.15,2013-01-06 13:31:00,
2013-01-06 08:41:00,34.5,31.9,29.97,SW,215,3.0,11.0,90,0.00,,,0.00,7,Wunderground v.1.15,2013-01-06 13:41:00,
2013-01-06 08:51:00,34.6,32.0,29.97,SSW,198,4.0,11.0,90,0.00,,,0.00,14,Wunderground v.1.15,2013-01-06 13:51:00,
2013-01-06 08:56:00,34.6,32.0,29.97,SSW,204,4.0,4.0,90,0.00,,,0.00,18,Wunderground v.1.15,2013-01-06 13:56:00,
2013-01-06 09:06:00,34.7,32.1,29.97,SSW,202,4.0,4.0,90,0.00,,,0.00,18,Wunderground v.1.15,2013-01-06 14:06:00,
2013-01-06 09:15:00,34.8,32.2,29.97,SSW,192,5.0,6.0,90,0.00,,,0.00,33,Wunderground v.1.15,2013-01-06 14:15:00,
2013-01-06 09:21:00,34.8,32.2,29.97,SSW,207,5.0,6.0,90,0.00,,,0.00,32,Wunderground v.1.15,2013-01-06 14:21:00,
2013-01-06 09:26:00,34.8,32.2,29.97,SSW,202,5.0,5.0,90,0.00,,,0.00,26,Wunderground v.1.15,2013-01-06 14:26:00,
2013-01-06 09:36:00,34.8,31.9,29.97,SSW,209,5.0,8.0,89,0.00,,,0.00,47,Wunderground v.1.15,2013-01-06 14:36:00,
2013-01-06 09:46:00,34.9,32.0,29.98,SSW,209,5.0,8.0,89,0.00,,,0.00,54,Wunderground v.1.15,2013-01-06 14:46:00,
2013-01-06 09:51:00,35.0,32.1,29.98,SSW,207,4.0,8.0,89,0.00,,,0.00,47,Wunderground v.1.15,2013-01-06 14:51:00,
2013-01-06 09:56:00,35.0,32.1,29.98,SSW,193,4.0,4.0,89,0.00,,,0.00,44,Wunderground v.1.15,2013-01-06 14:56:00,
2013-01-06 10:06:00,35.0,32.1,29.98,WSW,241,4.0,5.0,89,0.00,,,0.00,39,Wunderground v.1.15,2013-01-06 15:06:00,
2013-01-06 10:11:00,35.0,32.1,29.98,SW,223,5.0,6.0,89,0.00,,,0.00,33,Wunderground v.1.15,2013-01-06 15:11:00,
2013-01-06 10:20:00,35.1,32.2,29.98,SW,232,4.0,5.0,89,0.00,,,0.00,46,Wunderground v.1.15,2013-01-06 15:20:00,
2013-01-06 10:26:00,35.1,32.2,29.98,South,188,4.0,6.0,89,0.00,,,0.00,63,Wunderground v.1.15,2013-01-06 15:26:00,
2013-01-06 10:36:00,35.2,32.3,29.98,SW,222,5.0,9.0,89,0.00,,,0.00,46,Wunderground v.1.15,2013-01-06 15:36:00,
2013-01-06 10:41:00,35.2,32.3,29.98,SSW,202,4.0,9.0,89,0.00,,,0.00,28,Wunderground v.1.15,2013-01-06 15:41:00,
2013-01-06 10:51:00,35.3,32.4,29.98,SSW,196,4.0,9.0,89,0.00,,,0.00,42,Wunderground v.1.15,2013-01-06 15:51:00,
2013-01-06 10:56:00,35.3,32.4,29.98,SSW,192,3.0,4.0,89,0.00,,,0.00,62,Wunderground v.1.15,2013-01-06 15:56:00,
2013-01-06 11:06:00,35.5,32.3,29.98,South,191,3.0,3.0,88,0.00,,,0.00,63,Wunderground v.1.15,2013-01-06 16:06:00,
2013-01-06 11:11:00,35.5,32.3,29.98,South,188,3.0,3.0,88,0.00,,,0.00,47,Wunderground v.1.15,2013-01-06 16:11:00,
2013-01-06 11:20:00,35.7,32.5,29.98,SSW,201,2.0,2.0,88,0.00,,,0.00,63,Wunderground v.1.15,2013-01-06 16:20:00,
2013-01-06 11:25:00,35.8,32.6,29.98,SSW,192,3.0,3.0,88,0.00,,,0.00,49,Wunderground v.1.15,2013-01-06 16:25:00,
2013-01-06 11:30:00,35.9,32.7,29.97,SSW,200,3.0,4.0,88,0.00,,,0.00,49,Wunderground v.1.15,2013-01-06 16:30:00,
2013-01-06 11:36:00,35.9,32.4,29.97,WSW,245,4.0,11.0,87,0.00,,,0.01,47,Wunderground v.1.15,2013-01-06 16:36:00,
2013-01-06 11:46:00,36.0,32.5,29.97,SSW,202,3.0,11.0,87,0.00,,,0.01,44,Wunderground v.1.15,2013-01-06 16:46:00,
2013-01-06 11:51:00,36.1,32.6,29.97,SW,234,4.0,11.0,87,0.00,,,0.01,56,Wunderground v.1.15,2013-01-06 16:51:00,
2013-01-06 11:56:00,36.1,32.6,29.97,SW,227,3.0,4.0,87,0.00,,,0.01,49,Wunderground v.1.15,2013-01-06 16:56:00,
2013-01-06 12:06:00,36.0,32.5,29.97,WSW,256,3.0,4.0,87,0.00,,,0.01,65,Wunderground v.1.15,2013-01-06 17:06:00,
2013-01-06 12:11:00,36.0,32.8,29.97,South,180,4.0,4.0,88,0.00,,,0.01,53,Wunderground v.1.15,2013-01-06 17:11:00,
2013-01-06 12:16:00,36.0,32.8,29.97,WSW,242,4.0,5.0,88,0.00,,,0.01,76,Wunderground v.1.15,2013-01-06 17:16:00,
2013-01-06 12:25:00,35.9,33.0,29.97,SSW,200,4.0,4.0,89,0.00,,,0.01,76,Wunderground v.1.15,2013-01-06 17:25:00,
2013-01-06 12:30:00,35.9,33.3,29.97,WSW,242,5.0,6.0,90,0.00,,,0.01,83,Wunderground v.1.15,2013-01-06 17:30:00,
2013-01-06 12:41:00,35.8,33.2,29.97,SW,214,6.0,9.0,90,0.00,,,0.01,63,Wunderground v.1.15,2013-01-06 17:41:00,
2013-01-06 12:46:00,35.8,33.4,29.97,WSW,244,6.0,9.0,91,0.00,,,0.01,69,Wunderground v.1.15,2013-01-06 17:46:00,
2013-01-06 12:56:00,35.6,33.2,29.97,SW,221,5.0,5.0,91,0.00,,,0.01,53,Wunderground v.1.15,2013-01-06 17:56:00,
2013-01-06 13:06:00,35.5,33.4,29.97,WSW,248,5.0,5.0,92,0.00,,,0.01,67,Wunderground v.1.15,2013-01-06 18:06:00,
2013-01-06 13:11:00,35.5,33.4,29.97,WSW,257,4.0,5.0,92,0.00,,,0.01,67,Wunderground v.1.15,2013-01-06 18:11:00,
2013-01-06 13:21:00,35.6,33.5,29.97,West,265,7.0,10.0,92,0.00,,,0.01,58,Wunderground v.1.15,2013-01-06 18:21:00,
2013-01-06 13:30:00,35.6,33.2,29.97,WSW,250,6.0,11.0,91,0.00,,,0.01,40,Wunderground v.1.15,2013-01-06 18:30:00,
2013-01-06 13:36:00,35.5,33.1,29.97,SW,229,6.0,6.0,91,0.00,,,0.02,46,Wunderground v.1.15,2013-01-06 18:36:00,
2013-01-06 13:46:00,35.3,32.9,29.97,WNW,283,7.0,7.0,91,0.00,,,0.02,37,Wunderground v.1.15,2013-01-06 18:46:00,
2013-01-06 13:51:00,35.2,32.6,29.98,West,261,7.0,9.0,90,0.00,,,0.02,54,Wunderground v.1.15,2013-01-06 18:51:00,
2013-01-06 13:56:00,35.1,32.7,29.98,West,271,7.0,8.0,91,0.00,,,0.02,60,Wunderground v.1.15,2013-01-06 18:56:00,
2013-01-06 14:06:00,34.9,32.5,29.98,WNW,292,7.0,7.0,91,0.00,,,0.02,42,Wunderground v.1.15,2013-01-06 19:06:00,
2013-01-06 14:11:00,34.8,32.2,29.98,West,259,7.0,8.0,90,0.00,,,0.02,33,Wunderground v.1.15,2013-01-06 19:11:00,
2013-01-06 14:16:00,34.8,32.2,29.98,West,273,8.0,8.0,90,0.00,,,0.02,35,Wunderground v.1.15,2013-01-06 19:16:00,
2013-01-06 14:26:00,34.6,32.2,29.99,WNW,296,7.0,7.0,91,0.00,,,0.02,40,Wunderground v.1.15,2013-01-06 19:26:00,
2013-01-06 14:35:00,34.5,32.1,29.99,WSW,254,5.0,13.0,91,0.00,,,0.02,32,Wunderground v.1.15,2013-01-06 19:35:00,
2013-01-06 14:46:00,34.3,32.2,30.00,WSW,243,6.0,13.0,92,0.00,,,0.02,25,Wunderground v.1.15,2013-01-06 19:46:00,
2013-01-06 14:51:00,34.2,32.1,30.00,West,261,5.0,13.0,92,0.00,,,0.02,25,Wunderground v.1.15,2013-01-06 19:51:00,
2013-01-06 15:01:00,34.1,32.3,30.01,West,260,4.0,5.0,93,0.00,,,0.03,19,Wunderground v.1.15,2013-01-06 20:01:00,
2013-01-06 15:08:00,34.0,32.2,30.01,West,277,5.0,5.0,93,0.00,,,0.03,19,Wunderground v.1.15,2013-01-06 20:08:00,
2013-01-06 15:11:00,34.0,32.2,30.01,West,265,5.0,5.0,93,0.00,,,0.03,19,Wunderground v.1.15,2013-01-06 20:11:00,
2013-01-06 15:21:00,33.9,32.1,30.02,WNW,292,4.0,5.0,93,0.00,,,0.03,18,Wunderground v.1.15,2013-01-06 20:21:00,
2013-01-06 15:26:00,33.9,32.4,30.02,West,263,5.0,5.0,94,0.00,,,0.04,14,Wunderground v.1.15,2013-01-06 20:26:00,
2013-01-06 15:31:00,33.9,32.4,30.03,WNW,292,5.0,7.0,94,0.00,,,0.04,11,Wunderground v.1.15,2013-01-06 20:31:00,
2013-01-06 15:36:00,33.6,31.8,30.03,NW,315,7.0,13.0,93,0.00,,,0.04,23,Wunderground v.1.15,2013-01-06 20:36:00,
2013-01-06 15:45:00,33.2,31.4,30.04,NW,305,7.0,13.0,93,0.00,,,0.04,25,Wunderground v.1.15,2013-01-06 20:45:00,
2013-01-06 15:50:00,33.2,31.4,30.04,WNW,302,7.0,13.0,93,0.00,,,0.04,26,Wunderground v.1.15,2013-01-06 20:50:00,
2013-01-06 16:00:00,33.1,31.3,30.05,WNW,298,5.0,5.0,93,0.00,,,0.04,21,Wunderground v.1.15,2013-01-06 21:00:00,
2013-01-06 16:05:00,33.1,31.0,30.05,WNW,294,4.0,4.0,92,0.00,,,0.04,28,Wunderground v.1.15,2013-01-06 21:05:00,
2013-01-06 16:10:00,33.0,30.9,30.06,WNW,301,5.0,5.0,92,0.00,,,0.04,30,Wunderground v.1.15,2013-01-06 21:10:00,
2013-01-06 16:15:00,33.0,30.9,30.06,West,267,6.0,6.0,92,0.00,,,0.04,28,Wunderground v.1.15,2013-01-06 21:15:00,
2013-01-06 16:21:00,33.0,30.9,30.06,WNW,300,4.0,5.0,92,0.00,,,0.04,26,Wunderground v.1.15,2013-01-06 21:21:00,
2013-01-06 16:31:00,33.0,30.7,30.07,WNW,295,4.0,11.0,91,0.00,,,0.04,23,Wunderground v.1.15,2013-01-06 21:31:00,
2013-01-06 16:36:00,33.0,30.7,30.07,WNW,295,5.0,11.0,91,0.00,,,0.04,21,Wunderground v.1.15,2013-01-06 21:36:00,
2013-01-06 16:41:00,33.0,30.4,30.08,NW,313,5.0,5.0,90,0.00,,,0.04,16,Wunderground v.1.15,2013-01-06 21:41:00,
2013-01-06 16:46:00,33.0,30.4,30.08,WNW,291,4.0,11.0,90,0.00,,,0.04,14,Wunderground v.1.15,2013-01-06 21:46:00,
2013-01-06 16:56:00,33.0,30.4,30.09,WNW,297,3.0,3.0,90,0.00,,,0.04,5,Wunderground v.1.15,2013-01-06 21:56:00,
2013-01-06 17:06:00,33.0,30.1,30.09,West,281,4.0,4.0,89,0.00,,,0.04,0,Wunderground v.1.15,2013-01-06 22:06:00,
2013-01-06 17:15:00,33.0,30.1,30.10,NNW,327,3.0,3.0,89,0.00,,,0.04,0,Wunderground v.1.15,2013-01-06 22:15:00,
2013-01-06 17:21:00,32.9,30.0,30.10,WNW,298,2.0,3.0,89,0.00,,,0.04,0,Wunderground v.1.15,2013-01-06 22:21:00,
2013-01-06 17:31:00,32.9,30.3,30.11,WNW,286,1.0,10.0,90,0.00,,,0.04,0,Wunderground v.1.15,2013-01-06 22:31:00,
2013-01-06 17:36:00,32.9,30.3,30.11,WNW,289,1.0,10.0,90,0.00,,,0.04,0,Wunderground v.1.15,2013-01-06 22:36:00,
2013-01-06 17:46:00,32.9,30.3,30.11,WNW,298,2.0,10.0,90,0.00,,,0.04,0,Wunderground v.1.15,2013-01-06 22:46:00,
2013-01-06 17:56:00,33.0,30.1,30.12,WNW,292,3.0,3.0,89,0.00,,,0.04,0,Wunderground v.1.15,2013-01-06 22:56:00,
2013-01-06 18:06:00,33.1,29.9,30.13,NW,304,3.0,4.0,88,0.00,,,0.04,0,Wunderground v.1.15,2013-01-06 23:06:00,
2013-01-06 18:11:00,33.2,29.8,30.13,WNW,300,3.0,5.0,87,0.00,,,0.04,0,Wunderground v.1.15,2013-01-06 23:11:00,
2013-01-06 18:16:00,33.2,29.8,30.14,NW,313,3.0,5.0,87,0.00,,,0.04,0,Wunderground v.1.15,2013-01-06 23:16:00,
2013-01-06 18:21:00,33.2,29.8,30.14,WNW,291,3.0,6.0,87,0.00,,,0.04,0,Wunderground v.1.15,2013-01-06 23:21:00,
2013-01-06 18:30:00,33.2,29.8,30.15,NW,323,4.0,8.0,87,0.00,,,0.04,0,Wunderground v.1.15,2013-01-06 23:30:00,
2013-01-06 18:35:00,33.2,29.8,30.15,WNW,296,3.0,3.0,87,0.00,,,0.04,0,Wunderground v.1.15,2013-01-06 23:35:00,
2013-01-06 18:40:00,33.2,29.8,30.16,WNW,299,3.0,8.0,87,0.00,,,0.04,0,Wunderground v.1.15,2013-01-06 23:40:00,
2013-01-06 18:45:00,33.2,29.8,30.16,WNW,284,3.0,3.0,87,0.00,,,0.04,0,Wunderground v.1.15,2013-01-06 23:45:00,
2013-01-06 18:51:00,33.1,29.7,30.17,WNW,290,3.0,8.0,87,0.00,,,0.04,0,Wunderground v.1.15,2013-01-06 23:51:00,
2013-01-06 18:56:00,33.1,29.9,30.17,West,279,3.0,3.0,88,0.00,,,0.04,0,Wunderground v.1.15,2013-01-06 23:56:00,
2013-01-06 19:06:00,33.1,29.9,30.18,WNW,291,2.0,2.0,88,0.00,,,0.04,0,Wunderground v.1.15,2013-01-07 00:06:00,
2013-01-06 19:11:00,33.1,29.9,30.18,WNW,293,2.0,4.0,88,0.00,,,0.04,0,Wunderground v.1.15,2013-01-07 00:11:00,
2013-01-06 19:16:00,33.1,29.7,30.18,NW,306,3.0,6.0,87,0.00,,,0.04,0,Wunderground v.1.15,2013-01-07 00:16:00,
2013-01-06 19:21:00,33.1,29.7,30.18,WNW,299,3.0,6.0,87,0.00,,,0.04,0,Wunderground v.1.15,2013-01-07 00:21:00,
2013-01-06 19:30:00,33.1,29.7,30.19,NNW,331,3.0,5.0,87,0.00,,,0.04,0,Wunderground v.1.15,2013-01-07 00:30:00,
2013-01-06 19:35:00,33.2,29.8,30.19,NW,315,4.0,8.0,87,0.00,,,0.04,0,Wunderground v.1.15,2013-01-07 00:35:00,
2013-01-06 19:41:00,33.2,29.8,30.19,NW,317,4.0,8.0,87,0.00,,,0.04,0,Wunderground v.1.15,2013-01-07 00:41:00,
2013-01-06 19:50:00,33.2,29.8,30.20,NW,322,4.0,8.0,87,0.00,,,0.04,0,Wunderground v.1.15,2013-01-07 00:50:00,
2013-01-06 19:56:00,33.2,29.8,30.20,NW,320,4.0,4.0,87,0.00,,,0.04,0,Wunderground v.1.15,2013-01-07 00:56:00,
2013-01-06 20:01:00,33.2,29.5,30.20,NW,320,3.0,4.0,86,0.00,,,0.04,0,Wunderground v.1.15,2013-01-07 01:01:00,
2013-01-06 20:06:00,33.2,29.5,30.20,NW,313,3.0,5.0,86,0.00,,,0.04,0,Wunderground v.1.15,2013-01-07 01:06:00,
2013-01-06 20:16:00,33.3,29.3,30.20,NW,319,5.0,5.0,85,0.00,,,0.04,0,Wunderground v.1.15,2013-01-07 01:16:00,
2013-01-06 20:21:00,33.3,29.0,30.21,NNW,327,4.0,5.0,84,0.00,,,0.04,0,Wunderground v.1.15,2013-01-07 01:21:00,
2013-01-06 20:26:00,33.3,29.0,30.21,NW,321,4.0,4.0,84,0.00,,,0.04,0,Wunderground v.1.15,2013-01-07 01:26:00,
2013-01-06 20:36:00,33.3,29.0,30.22,NW,316,4.0,8.0,84,0.00,,,0.04,0,Wunderground v.1.15,2013-01-07 01:36:00,
2013-01-06 20:41:00,33.3,29.0,30.22,NW,318,3.0,8.0,84,0.00,,,0.04,0,Wunderground v.1.15,2013-01-07 01:41:00,
2013-01-06 20:46:00,33.3,29.0,30.23,NW,321,3.0,3.0,84,0.00,,,0.04,0,Wunderground v.1.15,2013-01-07 01:46:00,
2013-01-06 20:51:00,33.3,28.7,30.23,NW,323,3.0,8.0,83,0.00,,,0.04,0,Wunderground v.1.15,2013-01-07 01:51:00,
2013-01-06 20:56:00,33.2,28.6,30.23,NW,310,3.0,5.0,83,0.00,,,0.04,0,Wunderground v.1.15,2013-01-07 01:56:00,
2013-01-06 21:11:00,33.3,28.4,30.24,NW,306,4.0,6.0,82,0.00,,,0.04,0,Wunderground v.1.15,2013-01-07 02:11:00,
2013-01-06 21:20:00,33.2,28.3,30.24,NNW,336,4.0,6.0,82,0.00,,,0.04,0,Wunderground v.1.15,2013-01-07 02:20:00,
2013-01-06 21:30:00,33.2,28.0,30.24,NNW,334,4.0,10.0,81,0.00,,,0.04,0,Wunderground v.1.15,2013-01-07 02:30:00,
2013-01-06 21:35:00,33.2,28.0,30.25,NNW,327,4.0,10.0,81,0.00,,,0.04,0,Wunderground v.1.15,2013-01-07 02:35:00,
2013-01-06 21:41:00,33.2,28.0,30.25,NNW,342,4.0,4.0,81,0.00,,,0.04,0,Wunderground v.1.15,2013-01-07 02:41:00,
2013-01-06 21:51:00,33.1,27.6,30.25,NW,307,3.0,10.0,80,0.00,,,0.04,0,Wunderground v.1.15,2013-01-07 02:51:00,
2013-01-06 21:56:00,33.1,27.6,30.25,NW,317,2.0,2.0,80,0.00,,,0.04,0,Wunderground v.1.15,2013-01-07 02:56:00,
2013-01-06 22:06:00,33.0,27.5,30.25,NW,321,2.0,2.0,80,0.00,,,0.04,0,Wunderground v.1.15,2013-01-07 03:06:00,
2013-01-06 22:16:00,33.0,27.5,30.26,NNW,339,3.0,3.0,80,0.00,,,0.04,0,Wunderground v.1.15,2013-01-07 03:16:00,
2013-01-06 22:21:00,33.1,27.6,30.26,NW,309,4.0,4.0,80,0.00,,,0.04,0,Wunderground v.1.15,2013-01-07 03:21:00,
2013-01-06 22:26:00,33.0,27.5,30.26,NNW,327,3.0,3.0,80,0.00,,,0.04,0,Wunderground v.1.15,2013-01-07 03:26:00,
2013-01-06 22:30:00,33.0,27.5,30.27,NNW,330,3.0,8.0,80,0.00,,,0.04,0,Wunderground v.1.15,2013-01-07 03:30:00,
2013-01-06 22:36:00,33.0,27.5,30.27,NW,311,3.0,8.0,80,0.00,,,0.04,0,Wunderground v.1.15,2013-01-07 03:36:00,
2013-01-06 22:41:00,33.0,27.5,30.28,NW,320,3.0,8.0,80,0.00,,,0.04,0,Wunderground v.1.15,2013-01-07 03:41:00,
2013-01-06 22:50:00,33.0,27.5,30.28,NW,321,3.0,8.0,80,0.00,,,0.04,0,Wunderground v.1.15,2013-01-07 03:50:00,
2013-01-06 22:56:00,33.0,27.5,30.28,NW,316,3.0,5.0,80,0.00,,,0.04,0,Wunderground v.1.15,2013-01-07 03:56:00,
2013-01-06 23:05:00,33.0,27.5,30.28,NNW,328,3.0,3.0,80,0.00,,,0.04,0,Wunderground v.1.15,2013-01-07 04:05:00,
2013-01-06 23:16:00,33.0,27.5,30.29,NW,316,2.0,2.0,80,0.00,,,0.04,0,Wunderground v.1.15,2013-01-07 04:16:00,
2013-01-06 23:21:00,32.9,27.4,30.29,NNW,327,1.0,2.0,80,0.00,,,0.04,0,Wunderground v.1.15,2013-01-07 04:21:00,
2013-01-06 23:31:00,32.8,27.3,30.30,NNW,327,0.0,8.0,80,0.00,,,0.04,0,Wunderground v.1.15,2013-01-07 04:31:00,
2013-01-06 23:41:00,32.7,27.2,30.31,WNW,292,1.0,1.0,80,0.00,,,0.04,0,Wunderground v.1.15,2013-01-07 04:41:00,
2013-01-06 23:46:00,32.7,27.2,30.31,WNW,297,1.0,8.0,80,0.00,,,0.04,0,Wunderground v.1.15,2013-01-07 04:46:00,
2013-01-06 23:56:00,32.7,27.2,30.32,WNW,299,2.0,2.0,80,0.00,,,0.04,0,Wunderground v.1.15,2013-01-07 04:56:00,